Wind_Speed
42 39 37 39 39 40 43 46 46 46 47 46 46 46 47 48 47 48 50 51 53 54 52 52 51 48 48 48 48 54 52 54 55 51 51 52 49 46 48 52 52 55 54
32 33 36 40 43 43 43 42 42 42 42 43 41 43 44 45 45 46 46 47 47 47 48 48 48 50 50 50 50 50 52 55 51 49 56 57 54 53 57 55 46 53 55
37 37 41 43 44 44 45 48 48 47 47 47 46 45 45 46 47 48 48 47 46 47 48 47 48 48 48 49 49 50 52 54 56 57 52 52 56 59 51 43 50 53 45
41 43 44 46 47 46 48 49 50 51 49 47 48 49 49 51 52 54 53 53 52 52 52 52 51 51 51 52 52 52 54 54 56 54 53 55 55 58 55 58 54 51 50
49 43 41 46 51 54 56 55 54 52 51 54 54 55 56 57 58 58 58 60 60 59 60 60 59 58 58 58 58 57 58 58 59 59 55 50 45 52 55 54 48 51 57
50 44 46 50 53 50 50 54 54 56 59 60 60 59 59 58 58 59 61 62 62 66 67 65 65 67 66 64 63 62 61 61 62 64 62 61 60 60 60 60 63 56 54
58 51 53 57 53 52 55 54 56 57 57 58 60 60 58 56 57 60 61 61 62 65 66 69 71 72 75 76 74 69 67 67 65 67 68 66 65 63 63 62 61 58 57
55 55 54 53 55 55 56 56 56 57 59 60 58 57 59 62 65 67 69 70 68 66 68 69 73 74 75 80 80 78 75 71 69 70 71 69 70 69 64 62 61 60 56
52 52 53 53 53 54 55 56 58 58 58 60 64 69 72 74 77 80 82 83 83 84 81 81 81 78 77 76 80 84 80 75 73 75 73 71 72 70 68 63 61 62 61
49 50 50 51 53 56 56 56 58 61 66 71 75 79 83 87 91 92 95 97 94 94 91 92 93 92 90 88 87 84 77 75 77 76 76 76 73 72 71 68 66 65 63
49 51 52 53 55 56 59 62 66 69 72 76 81 85 88 91 93 96 100 102 104 105 106 105 105 104 102 99 96 93 86 83 78 76 77 77 75 71 73 73 71 68 68
51 54 55 57 61 64 68 73 76 79 82 85 90 94 98 101 105 108 111 115 119 120 120 121 120 118 115 110 104 97 91 89 84 80 79 77 73 71 71 73 74 72 71
54 56 60 64 68 72 77 80 84 88 92 94 97 101 104 108 110 112 113 113 111 109 107 102 97 92 88 84 81 83 84 82 83 82 79 78 75 70 69 69 72 75 74
58 61 65 69 73 78 82 86 90 93 96 100 101 100 101 99 91 83 75 72 71 68 66 61 60 57 56 56 56 57 61 68 74 74 74 73 73 69 65 65 66 68 68
62 66 69 73 77 81 85 88 92 95 95 95 91 84 82 81 71 65 62 60 55 51 50 48 46 45 46 47 47 50 54 57 63 68 66 67 68 66 63 61 62 62 63
66 70 73 77 80 84 87 91 89 87 80 78 80 78 77 69 62 56 53 53 49 44 40 36 37 37 39 39 41 44 47 51 54 58 62 62 61 61 61 60 57 57 53
70 74 77 81 84 85 83 81 73 75 77 74 75 72 70 63 53 48 47 46 44 41 36 33 33 34 36 38 39 40 42 45 48 50 54 58 57 58 58 57 59 58 60
73 77 80 82 81 78 73 71 72 69 68 70 68 67 66 57 48 45 44 41 39 39 37 32 30 31 33 36 38 38 40 41 42 43 47 51 55 56 55 57 58 59 54
78 79 77 74 68 67 70 68 69 67 66 63 61 63 59 53 46 43 41 39 36 33 33 32 29 28 29 32 35 38 39 40 41 41 43 44 48 52 53 54 58 67 59
72 68 65 66 67 66 67 67 66 64 61 62 61 55 49 44 40 37 36 36 35 34 31 30 29 28 27 27 29 32 38 40 41 43 45 45 46 46 52 49 54 58 64
61 64 64 66 67 67 67 65 62 61 64 60 53 50 41 36 35 34 34 33 32 32 32 31 30 29 28 28 28 29 31 35 39 42 46 48 48 49 48 53 54 55 57
61 63 64 66 66 65 63 60 63 63 57 49 45 41 37 34 34 34 35 36 36 35 34 33 32 32 32 31 30 30 30 32 34 36 38 43 47 50 50 51 53 54 54
59 60 63 62 61 59 61 61 58 51 43 40 37 35 35 34 35 36 38 38 39 39 39 38 37 37 35 35 34 34 34 34 34 36 37 38 40 43 46 48 51 53 55
58 61 60 59 58 60 58 53 47 41 37 36 35 35 35 36 37 39 40 41 41 42 42 41 40 39 39 39 39 39 38 37 38 39 39 39 41 42 44 45 46 48 51
56 57 57 57 60 55 48 44 41 38 35 35 36 37 38 39 40 42 44 45 46 45 43 42 41 40 41 41 41 41 42 43 42 43 43 44 44 45 46 47 48 50 51
56 56 55 58 52 45 42 40 39 36 35 34 35 36 38 41 43 45 45 44 42 42 42 43 44 44 45 45 45 45 46 47 47 47 47 48 49 49 50 51 52 53 54
Wind_Direction
278 281 284 283 281 280 279 276 277 277 277 276 276 276 276 276 274 272 271 271 273 274 275 276 279 278 277 275 279 277 278 278 272 270 269 269 270 270 269 268 267 269 269
280 281 279 281 281 282 281 280 278 278 278 279 278 278 277 276 276 276 274 272 271 273 274 275 276 277 277 277 277 274 275 275 276 279 271 269 268 269 270 265 261 266 267
282 281 281 280 279 279 282 279 279 281 280 279 279 281 282 282 280 280 278 277 276 274 273 273 274 275 276 276 276 276 276 275 274 272 273 276 275 270 265 269 270 267 269
279 279 279 281 280 280 288 286 284 283 283 283 282 283 283 282 280 280 280 280 279 276 274 275 274 274 274 275 276 277 277 276 276 276 273 268 277 275 274 275 276 265 263
278 279 281 282 285 286 281 281 281 281 282 284 286 285 285 284 284 283 283 282 282 280 279 279 277 276 275 273 272 273 275 277 277 275 273 272 273 275 275 272 262 283 272
273 274 286 281 274 285 287 282 279 279 282 283 283 284 282 282 282 282 281 281 281 281 281 280 280 279 276 275 275 275 273 271 273 275 274 267 266 267 271 269 270 274 281
280 284 283 288 292 291 291 290 287 284 284 284 284 282 281 279 279 280 279 279 279 278 277 278 278 279 277 275 274 272 272 271 269 269 271 273 271 269 269 269 269 270 270
283 286 288 289 288 287 286 286 285 285 284 284 282 280 280 280 281 284 282 282 279 277 275 277 275 273 277 276 273 272 271 268 267 268 268 269 269 269 268 269 270 270 267
280 281 283 283 283 283 284 285 285 286 285 285 287 290 290 290 289 288 287 284 283 281 276 276 277 275 272 272 276 272 270 269 265 264 264 266 268 266 265 263 264 263 264
281 281 281 283 284 285 286 287 288 289 291 292 292 292 289 288 286 286 285 283 280 277 279 278 280 280 275 278 277 278 272 269 265 261 261 262 263 263 261 260 256 259 261
281 283 284 284 285 285 286 287 287 288 290 293 295 295 293 292 291 290 289 288 285 283 284 282 282 282 281 278 277 274 272 267 264 259 257 259 259 258 258 258 257 258 261
284 286 288 290 290 290 291 291 292 292 293 294 294 294 293 292 291 289 288 287 286 285 284 283 282 280 279 276 274 270 267 265 262 257 255 256 256 255 253 254 256 257 255
289 291 292 292 292 293 293 293 293 294 295 295 295 294 295 295 295 295 294 292 291 290 288 286 283 280 276 270 266 261 258 254 251 251 251 252 255 254 253 253 253 254 256
292 292 294 295 295 295 294 295 297 299 300 300 301 300 300 301 300 297 295 296 296 294 290 286 283 281 276 269 263 259 256 253 249 247 248 250 252 254 253 253 254 253 254
293 295 295 295 296 297 298 301 302 303 303 303 304 306 307 310 305 302 301 304 300 298 290 284 279 276 271 262 255 252 249 248 246 245 245 248 250 252 253 253 253 255 254
294 294 295 297 299 301 303 305 305 305 305 304 308 310 315 313 307 305 308 312 311 306 296 286 275 268 265 262 259 255 252 249 245 243 244 245 248 250 251 251 247 249 254
294 296 298 300 301 302 304 305 304 305 305 305 308 311 317 312 305 305 308 312 312 312 305 294 284 272 262 260 259 258 257 254 250 246 244 243 244 247 250 250 243 243 252
297 299 299 302 303 304 303 302 304 304 304 306 308 311 315 310 305 303 306 310 313 314 313 309 298 283 271 264 257 254 257 255 251 249 251 246 241 238 246 247 245 241 248
300 301 303 304 302 302 303 303 304 304 305 305 308 313 312 310 307 305 305 306 308 310 309 310 305 296 283 269 263 260 254 253 255 251 251 254 251 242 238 238 244 243 246
303 303 303 302 304 304 304 305 306 306 306 307 308 309 305 305 307 309 309 308 309 308 308 306 304 301 296 286 276 267 262 258 254 253 253 253 251 252 245 246 244 247 247
303 304 305 305 305 305 306 306 307 306 307 306 305 304 301 301 302 303 304 306 308 309 310 307 303 300 295 291 287 280 273 266 262 259 256 256 257 254 250 250 252 249 243
305 307 307 307 307 307 307 306 306 307 305 303 301 301 299 301 303 307 309 310 310 309 308 307 304 301 298 294 289 283 279 275 272 268 263 259 257 257 257 254 252 251 251
307 308 308 309 308 308 307 307 307 305 301 299 297 297 298 299 303 307 308 308 308 308 307 305 303 301 297 294 290 286 283 278 273 270 267 265 263 260 257 255 253 251 251
310 311 312 312 310 310 310 311 309 303 298 297 295 295 297 299 302 306 308 308 308 307 305 303 301 298 296 293 290 287 283 279 276 273 269 266 263 261 260 259 257 256 254
314 316 316 315 314 313 314 314 311 305 302 298 295 295 298 300 303 306 308 308 308 307 305 303 301 299 296 293 289 286 282 279 277 275 273 270 267 265 262 260 259 258 256
315 315 315 316 314 315 317 316 313 308 305 303 300 299 299 300 303 305 306 306 308 308 307 305 303 300 297 294 291 287 284 280 277 274 272 270 268 267 266 264 262 260 258
Height
5678 5677 5676 5675 5674 5672 5671 5670 5668 5666 5664 5662 5660 5659 5657 5655 5652 5651 5649 5648 5647 5646 5644 5642 5641 5638 5638 5637 5635 5634 5632 5632 5632 5634 5631 5633 5632 5632 5634 5633 5633 5633 5632
5668 5668 5667 5665 5664 5662 5660 5658 5656 5654 5652 5650 5648 5646 5644 5642 5639 5638 5637 5635 5633 5632 5630 5628 5627 5625 5624 5622 5621 5620 5619 5618 5617 5619 5620 5618 5618 5615 5617 5619 5613 5618 5618
5660 5658 5657 5655 5653 5651 5649 5648 5646 5644 5641 5638 5636 5633 5631 5628 5626 5625 5623 5621 5619 5618 5616 5614 5613 5610 5609 5608 5606 5606 5605 5604 5602 5602 5604 5604 5603 5605 5603 5602 5599 5601 5596
5649 5648 5645 5644 5642 5640 5638 5635 5632 5630 5628 5625 5623 5620 5617 5615 5612 5610 5608 5606 5605 5603 5601 5600 5598 5596 5594 5592 5590 5590 5590 5589 5587 5587 5589 5589 5583 5587 5588 5587 5585 5584 5586
5636 5636 5633 5631 5629 5627 5624 5621 5619 5617 5614 5612 5609 5605 5602 5598 5595 5592 5590 5588 5587 5586 5584 5582 5581 5579 5577 5575 5573 5574 5571 5571 5572 5573 5574 5570 5568 5569 5571 5571 5566 5568 5568
5622 5622 5620 5619 5616 5613 5611 5608 5605 5602 5599 5596 5593 5589 5585 5581 5577 5573 5571 5570 5567 5565 5564 5562 5560 5560 5559 5557 5555 5554 5554 5553 5554 5553 5556 5558 5558 5556 5553 5553 5553 5553 5550
5611 5609 5608 5605 5602 5599 5595 5592 5590 5585 5583 5579 5575 5571 5568 5563 5559 5555 5551 5549 5547 5545 5541 5539 5538 5536 5535 5535 5535 5534 5534 5534 5533 5533 5536 5539 5539 5538 5536 5536 5536 5537 5539
5598 5596 5593 5591 5588 5585 5581 5577 5574 5570 5566 5562 5559 5555 5551 5545 5540 5535 5530 5528 5526 5523 5519 5516 5514 5512 5510 5507 5508 5511 5513 5513 5512 5510 5514 5519 5518 5518 5517 5519 5520 5520 5522
5586 5583 5580 5577 5573 5570 5566 5562 5559 5555 5550 5546 5541 5535 5530 5525 5518 5512 5505 5502 5498 5496 5494 5491 5488 5488 5487 5483 5482 5486 5489 5492 5489 5487 5491 5495 5497 5498 5499 5501 5503 5503 5506
5571 5568 5565 5562 5559 5555 5551 5547 5542 5538 5534 5529 5522 5514 5507 5500 5491 5483 5474 5469 5466 5463 5464 5460 5457 5455 5456 5452 5450 5453 5457 5464 5462 5464 5467 5472 5474 5475 5477 5479 5482 5483 5487
5557 5554 5551 5548 5544 5539 5534 5529 5524 5519 5513 5508 5501 5492 5483 5475 5466 5456 5447 5436 5428 5428 5424 5424 5423 5421 5420 5419 5418 5421 5428 5432 5435 5437 5441 5445 5449 5451 5454 5456 5459 5463 5467
5544 5540 5536 5532 5527 5522 5516 5509 5503 5497 5490 5483 5476 5467 5457 5446 5436 5428 5417 5404 5392 5384 5383 5380 5380 5381 5380 5380 5381 5387 5393 5398 5404 5409 5415 5419 5423 5427 5430 5433 5436 5440 5445
5530 5525 5520 5515 5509 5503 5496 5488 5481 5474 5466 5458 5450 5440 5431 5419 5406 5395 5384 5370 5357 5345 5337 5333 5332 5331 5333 5336 5339 5347 5354 5362 5370 5377 5386 5394 5398 5402 5406 5410 5414 5418 5423
5515 5510 5504 5497 5489 5482 5474 5466 5458 5449 5439 5429 5422 5411 5400 5388 5374 5362 5354 5344 5332 5320 5310 5306 5306 5304 5306 5309 5314 5319 5325 5333 5342 5350 5359 5367 5372 5378 5382 5388 5392 5397 5401
5499 5493 5485 5478 5470 5460 5452 5444 5434 5424 5414 5404 5395 5385 5375 5363 5349 5338 5331 5324 5314 5305 5297 5291 5290 5289 5290 5292 5296 5300 5305 5311 5318 5326 5334 5342 5349 5354 5360 5364 5370 5375 5379
5481 5474 5467 5459 5450 5442 5431 5416 5409 5400 5391 5381 5372 5363 5353 5340 5330 5321 5314 5306 5298 5291 5284 5279 5278 5277 5279 5280 5282 5285 5289 5293 5298 5305 5312 5320 5326 5332 5337 5343 5349 5354 5358
5463 5456 5448 5440 5431 5421 5411 5403 5393 5376 5371 5363 5352 5343 5334 5326 5317 5310 5302 5295 5287 5281 5275 5269 5267 5266 5267 5268 5270 5272 5275 5278 5283 5287 5292 5298 5306 5312 5316 5322 5327 5333 5337
5445 5437 5429 5420 5410 5401 5393 5384 5376 5369 5358 5345 5336 5327 5320 5311 5305 5298 5291 5285 5278 5271 5266 5261 5258 5257 5256 5257 5258 5259 5262 5265 5268 5272 5276 5280 5285 5290 5296 5301 5306 5312 5315
5425 5416 5407 5399 5391 5383 5375 5366 5358 5349 5342 5333 5323 5313 5303 5296 5291 5286 5281 5276 5271 5266 5260 5255 5251 5248 5246 5246 5246 5247 5248 5251 5254 5258 5261 5264 5267 5271 5277 5280 5285 5290 5295
5406 5397 5389 5381 5373 5365 5357 5348 5339 5331 5323 5316 5309 5302 5295 5288 5281 5276 5271 5266 5261 5257 5253 5249 5245 5241 5239 5237 5235 5235 5236 5237 5239 5242 5245 5248 5252 5255 5258 5261 5265 5269 5273
5388 5380 5372 5365 5356 5348 5339 5331 5323 5315 5307 5299 5293 5287 5282 5278 5273 5268 5264 5259 5254 5249 5245 5241 5238 5234 5231 5229 5227 5225 5224 5224 5225 5227 5229 5232 5235 5238 5241 5244 5247 5250 5253
5372 5364 5356 5347 5338 5330 5322 5314 5306 5298 5291 5285 5279 5274 5270 5266 5263 5258 5254 5249 5245 5241 5237 5233 5229 5226 5223 5220 5218 5216 5215 5214 5213 5213 5214 5215 5218 5220 5223 5227 5229 5232 5235
5356 5348 5340 5330 5322 5313 5305 5297 5288 5281 5276 5272 5268 5264 5260 5256 5253 5249 5244 5240 5235 5231 5227 5223 5219 5215 5212 5210 5208 5206 5204 5203 5202 5201 5201 5201 5202 5203 5205 5207 5210 5213 5217
5341 5332 5323 5314 5306 5297 5288 5279 5272 5267 5263 5260 5257 5254 5251 5247 5243 5239 5234 5229 5224 5220 5215 5212 5208 5204 5201 5198 5195 5193 5192 5190 5189 5188 5187 5187 5187 5188 5189 5190 5192 5195 5198
5326 5317 5309 5300 5291 5282 5273 5266 5260 5256 5252 5249 5246 5243 5240 5236 5232 5228 5223 5218 5213 5207 5202 5198 5194 5191 5187 5184 5181 5179 5176 5175 5174 5173 5171 5171 5171 5171 5172 5173 5174 5176 5179
5312 5304 5295 5287 5278 5271 5264 5257 5251 5246 5243 5239 5236 5233 5230 5225 5221 5216 5211 5206 5200 5195 5190 5186 5181 5177 5173 5169 5166 5163 5160 5157 5156 5155 5154 5153 5153 5153 5154 5154 5155 5156 5158